Weather History for Montevideo, MN

Change the Weather History Date:

Sunday, April 6, 2014

  Actual Average Record
Temperature  
Mean Temperature 50 °F -  
Max Temperature 64 °F 54 °F 86 °F (1991)
Min Temperature 35 °F 29 °F 5 °F (1979)
Degree Days  
Heating Degree Days 16    
Moisture  
Dew Point 38 °F    
Average Humidity 72    
Maximum Humidity 93    
Minimum Humidity 37    
Precipitation  
Precipitation 0.00 in - - ()
Sea Level Pressure  
Sea Level Pressure 29.83 in    
Wind  
Wind Speed 6 mph (WNW)    
Max Wind Speed 12 mph    
Max Gust Speed 16 mph    
Visibility 9 miles    
Events Thunderstorm    
Averages and records for this station are not official NWS values.
T = Trace of Precipitation, MM = Missing Value Source: NWS Daily Summary

Daily Weather History Graph

Daily Weather History Graph

Search for Another Location

Airport:

Trip Planner

Search our weather history database for the weather conditions in past years. The results will help you decide how hot, cold, wet, or windy it might be!

Date:

Astronomy

Apr. 06, 2014 Rise Set
Actual Time 6:54 AM CDT 7:56 PM CDT
Civil Twilight 6:24 AM CDT 8:26 PM CDT
Nautical Twilight 5:48 AM CDT 9:02 PM CDT
Astronomical Twilight 5:10 AM CDT 9:40 PM CDT
Moon 11:47 AM CDT (4/6) 2:02 AM CDT (4/6)
Length of Visible Light 14h 02m
Length of Day
13h 02m
Waxing Crescent, 44% of the Moon is Illuminated
Apr 6
Waxing Crescent
Apr 7
First Quarter
Apr 15
Full
Apr 22
Last Quarter
Apr 29
New

Hourly Weather History & Observations

Time (CDT) Temp. Windchill Dew Point Humidity Pressure Visibility Wind Dir Wind Speed Gust Speed Precip Events Conditions
12:14 AM 42.8 °F 37.0 °F 33.8 °F 70% 29.85 in 10.0 mi SSW 10.4 mph 16.1 mph N/A   Clear
12:34 AM 41.0 °F 34.7 °F 33.8 °F 76% 29.84 in 10.0 mi SSW 10.4 mph - N/A   Clear
12:54 AM 39.2 °F 33.0 °F 33.8 °F 81% 29.84 in 10.0 mi SSW 9.2 mph - N/A   Clear
1:14 AM 39.2 °F 33.6 °F 33.8 °F 81% 29.83 in 10.0 mi SSW 8.1 mph - N/A   Clear
1:34 AM 39.2 °F 34.2 °F 33.8 °F 81% 29.83 in 10.0 mi SSW 6.9 mph - N/A   Clear
1:54 AM 39.2 °F 34.2 °F 33.8 °F 81% 29.83 in 10.0 mi SSW 6.9 mph - N/A   Clear
2:14 AM 37.4 °F 32.1 °F 32.0 °F 81% 29.83 in 10.0 mi SSW 6.9 mph - N/A   Clear
2:34 AM 37.4 °F 32.1 °F 32.0 °F 81% 29.82 in 10.0 mi SSW 6.9 mph - N/A   Clear
2:54 AM 37.4 °F 33.8 °F 32.0 °F 81% 29.82 in 10.0 mi SSW 4.6 mph - N/A   Clear
3:14 AM 35.6 °F 32.8 °F 30.2 °F 81% 29.82 in 10.0 mi South 3.5 mph - N/A   Clear
3:34 AM 35.6 °F 32.8 °F 30.2 °F 81% 29.82 in 10.0 mi SSW 3.5 mph - N/A   Clear
3:54 AM 35.6 °F 32.8 °F 30.2 °F 81% 29.82 in 10.0 mi SSW 3.5 mph - N/A   Clear
4:14 AM 35.6 °F 32.8 °F 30.2 °F 81% 29.82 in 10.0 mi SW 3.5 mph - N/A   Clear
4:34 AM 35.6 °F 31.7 °F 30.2 °F 81% 29.82 in 10.0 mi West 4.6 mph - N/A   Clear
4:54 AM 35.6 °F 30.7 °F 32.0 °F 87% 29.82 in 10.0 mi WSW 5.8 mph - N/A   Clear
5:14 AM 37.4 °F 31.4 °F 33.8 °F 87% 29.82 in 10.0 mi West 8.1 mph - N/A   Clear
5:34 AM 39.2 °F 34.2 °F 33.8 °F 81% 29.82 in 10.0 mi West 6.9 mph - N/A   Clear
5:54 AM 39.2 °F 34.2 °F 33.8 °F 81% 29.82 in 10.0 mi West 6.9 mph - N/A   Clear
6:14 AM 37.4 °F 32.8 °F 32.0 °F 81% 29.82 in 10.0 mi WNW 5.8 mph - N/A   Clear
6:34 AM 37.4 °F 32.8 °F 32.0 °F 81% 29.83 in 10.0 mi WNW 5.8 mph - N/A   Clear
6:54 AM 35.6 °F 29.9 °F 30.2 °F 81% 29.84 in 10.0 mi WNW 6.9 mph - N/A   Clear
7:14 AM 35.6 °F 29.2 °F 32.0 °F 87% 29.85 in 10.0 mi WNW 8.1 mph - N/A   Clear
7:34 AM 35.6 °F 28.6 °F 32.0 °F 87% 29.85 in 7.0 mi NW 9.2 mph - N/A   Clear
7:54 AM 35.6 °F 27.5 °F 33.8 °F 93% 29.85 in 5.0 mi NNW 11.5 mph - N/A   Clear
8:13 AM 37.4 °F 30.3 °F 33.8 °F 87% 29.86 in 5.0 mi NW 10.4 mph - N/A   Clear
8:34 AM 37.4 °F 31.4 °F 33.8 °F 87% 29.86 in 7.0 mi NW 8.1 mph - N/A   Clear
8:54 AM 39.2 °F 33.0 °F 35.6 °F 87% 29.86 in 7.0 mi NW 9.2 mph - N/A   Clear
9:14 AM 39.2 °F 33.6 °F 35.6 °F 87% 29.86 in 5.0 mi NNW 8.1 mph - N/A   Haze
9:34 AM 41.0 °F 34.7 °F 35.6 °F 81% 29.85 in 7.0 mi NNW 10.4 mph - N/A   Clear
9:54 AM 42.8 °F 38.0 °F 37.4 °F 81% 29.85 in 7.0 mi NNW 8.1 mph - N/A   Clear
10:14 AM 44.6 °F 40.2 °F 37.4 °F 76% 29.86 in 7.0 mi NW 8.1 mph - N/A   Clear
10:34 AM 44.6 °F 40.7 °F 37.4 °F 76% 29.86 in 4.0 mi NNW 6.9 mph - N/A   Haze
10:54 AM 42.8 °F 40.1 °F 35.6 °F 76% 29.87 in 1.8 mi NNW 4.6 mph - N/A   Haze
11:14 AM 42.8 °F 41.1 °F 37.4 °F 81% 29.87 in 1.8 mi North 3.5 mph - N/A   Haze
11:34 AM 44.6 °F 43.1 °F 39.2 °F 81% 29.87 in 2.5 mi NNE 3.5 mph - N/A   Haze
11:54 AM 48.2 °F - 42.8 °F 82% 29.87 in 4.0 mi NW 4.6 mph - N/A   Haze
12:14 PM 48.2 °F - 44.6 °F 87% 29.87 in 4.0 mi NNW 4.6 mph - N/A   Haze
12:34 PM 50.0 °F - 44.6 °F 82% 29.86 in 4.0 mi Calm Calm - N/A   Haze
12:54 PM 51.8 °F - 44.6 °F 76% 29.86 in 5.0 mi Calm Calm - N/A   Haze
1:14 PM 53.6 °F - 46.4 °F 77% 29.85 in 7.0 mi Calm Calm - N/A   Clear
1:34 PM 53.6 °F - 46.4 °F 77% 29.85 in 7.0 mi NNW 4.6 mph - N/A   Clear
1:54 PM 55.4 °F - 44.6 °F 67% 29.84 in 10.0 mi North 5.8 mph - N/A   Clear
2:14 PM 57.2 °F - 46.4 °F 67% 29.84 in 10.0 mi NNW 4.6 mph - N/A   Clear
2:34 PM 59.0 °F - 46.4 °F 63% 29.83 in 10.0 mi North 4.6 mph - N/A   Clear
2:54 PM 60.8 °F - 44.6 °F 55% 29.82 in 10.0 mi NE 3.5 mph - N/A   Clear
3:14 PM 62.6 °F - 44.6 °F 52% 29.82 in 10.0 mi Calm Calm - N/A   Clear
3:34 PM 62.6 °F - 35.6 °F 37% 29.81 in 10.0 mi NE 4.6 mph - N/A   Clear
3:54 PM 62.6 °F - 39.2 °F 42% 29.81 in 10.0 mi Calm Calm - N/A   Clear
4:14 PM 62.6 °F - 42.8 °F 48% 29.81 in 10.0 mi North 3.5 mph - N/A   Clear
4:34 PM 64.4 °F - 42.8 °F 45% 29.81 in 10.0 mi Calm Calm - N/A   Clear
4:54 PM 64.4 °F - 39.2 °F 40% 29.80 in 10.0 mi NNW 4.6 mph - N/A   Clear
5:14 PM 60.8 °F - 37.4 °F 42% 29.80 in 10.0 mi NE 4.6 mph - N/A   Clear
5:34 PM 59.0 °F - 39.2 °F 48% 29.80 in 10.0 mi ENE 3.5 mph - N/A   Mostly Cloudy
5:54 PM 59.0 °F - 39.2 °F 48% 29.81 in 10.0 mi East 3.5 mph - N/A   Overcast
6:14 PM 59.0 °F - 39.2 °F 48% 29.81 in 10.0 mi Calm Calm - N/A   Overcast
6:34 PM 57.2 °F - 41.0 °F 55% 29.81 in 10.0 mi ESE 4.6 mph - N/A   Mostly Cloudy
6:54 PM 57.2 °F - 42.8 °F 59% 29.81 in 10.0 mi ESE 3.5 mph - N/A Thunderstorm Scattered Clouds
7:14 PM 55.4 °F - 42.8 °F 63% 29.80 in 10.0 mi ESE 3.5 mph - N/A Thunderstorm Scattered Clouds
7:34 PM 55.4 °F - 42.8 °F 63% 29.80 in 10.0 mi Calm Calm - N/A Thunderstorm Mostly Cloudy
7:54 PM 53.6 °F - 42.8 °F 67% 29.80 in 10.0 mi Calm Calm - N/A   Overcast
8:14 PM 51.8 °F - 41.0 °F 67% 29.81 in 10.0 mi Calm Calm - N/A   Overcast
8:34 PM 51.8 °F - 42.8 °F 71% 29.82 in 10.0 mi NE 9.2 mph - N/A   Overcast
8:54 PM 51.8 °F - 42.8 °F 71% 29.83 in 10.0 mi NE 4.6 mph - N/A   Overcast
9:14 PM 51.8 °F - 41.0 °F 67% 29.84 in 10.0 mi NW 6.9 mph - N/A   Overcast
9:34 PM 51.8 °F - 39.2 °F 62% 29.85 in 10.0 mi NNW 8.1 mph - N/A   Drizzle
9:54 PM 50.0 °F - 41.0 °F 71% 29.84 in 10.0 mi NW 5.8 mph - N/A Thunderstorm Thunderstorm
10:14 PM 51.8 °F - 42.8 °F 71% 29.83 in 10.0 mi SSE 5.8 mph - N/A   Light Drizzle
10:34 PM 48.2 °F - 42.8 °F 82% 29.83 in 10.0 mi South 4.6 mph - N/A   Mostly Cloudy
10:54 PM 48.2 °F - 41.0 °F 76% 29.82 in 10.0 mi South 5.8 mph - N/A   Overcast
11:14 PM 50.0 °F - 39.2 °F 66% 29.82 in 10.0 mi South 6.9 mph - N/A   Overcast
11:34 PM 50.0 °F - 39.2 °F 66% 29.81 in 10.0 mi South 3.5 mph - N/A   Overcast
11:54 PM 50.0 °F - 39.2 °F 66% 29.82 in 10.0 mi SSW 4.6 mph - N/A   Overcast